RH
39 45 50 50 49 49 50 52 54 56 57 57 57 58 60 66 75 84 94 100 98 96 92 85 79 78 77 75 74 73 71 71 70 70 71 70 70 72 73 74 75 74
47 57 60 59 57 55 54 55 57 58 59 59 61 63 65 71 80 88 92 92 88 85 81 78 76 75 74 72 72 71 70 70 69 71 72 72 73 74 74 76 76 75
51 63 66 65 64 62 59 58 59 61 62 63 64 67 70 72 76 79 80 79 78 77 76 75 73 72 72 72 72 72 72 73 73 75 76 75 76 76 75 75 72 70
53 64 69 70 69 68 66 64 64 64 65 66 67 68 70 72 74 75 75 76 76 76 75 75 75 76 77 77 78 79 79 79 79 80 79 77 77 75 71 68 65 63
56 64 69 72 72 72 72 71 70 69 69 69 69 69 69 70 72 72 74 75 75 76 77 78 79 79 79 79 80 79 78 78 78 78 75 71 70 67 65 64 63 64
62 68 69 70 68 67 65 65 65 64 65 67 68 69 70 70 72 72 73 73 73 74 73 72 71 69 68 67 66 66 66 67 68 68 66 64 65 65 65 66 66 66
63 64 62 59 55 54 53 52 52 52 52 53 55 57 59 60 63 64 64 64 63 63 60 58 55 53 53 53 53 54 55 56 59 61 60 59 61 61 63 67 68 69
55 54 53 52 52 52 51 51 51 51 50 49 49 50 50 50 51 51 52 52 51 52 51 50 49 48 48 48 48 48 49 50 53 54 54 54 56 58 64 71 75 75
53 54 55 56 56 56 55 54 54 53 53 52 51 52 52 52 52 51 52 52 52 53 53 53 53 53 54 53 52 52 53 53 55 56 56 57 59 62 68 75 77 77
59 60 62 62 62 61 59 59 58 57 58 57 56 57 56 57 57 56 56 56 56 58 60 62 63 62 62 62 62 63 62 62 63 64 64 65 66 68 71 74 75 75
65 67 69 69 68 68 67 66 64 64 64 64 63 62 61 61 59 56 55 53 53 55 58 62 67 70 71 69 69 70 70 71 71 70 71 71 71 72 73 75 75 75
71 72 72 73 72 73 72 71 70 70 70 71 70 69 68 67 64 60 55 50 50 50 50 53 59 66 71 74 77 75 73 74 77 77 77 77 76 76 77 78 78 78
74 74 75 75 76 77 77 77 77 77 78 79 78 78 76 73 72 71 64 56 53 52 50 50 53 58 65 73 82 83 76 71 74 79 81 82 82 82 82 82 81 81
78 79 79 80 81 81 82 82 84 85 86 87 87 86 81 73 72 77 75 65 58 54 52 52 54 59 64 71 80 88 84 73 67 70 76 80 83 84 85 85 85 85
86 87 86 86 86 86 86 86 86 85 84 84 82 80 77 72 71 75 72 64 58 56 55 55 57 60 65 69 73 81 88 84 75 70 70 72 75 78 80 82 84 87
86 83 78 75 74 75 77 78 78 77 75 73 72 71 71 70 69 66 63 59 56 55 54 55 56 58 60 64 66 71 79 85 84 80 75 72 70 71 73 77 81 87
79 72 66 64 63 65 68 69 70 69 67 65 64 62 61 60 58 56 53 51 48 46 46 46 47 50 54 58 61 64 68 71 73 73 71 68 65 63 65 71 79 87
72 66 64 64 64 64 63 62 61 59 57 55 53 51 49 46 43 40 36 33 29 27 26 26 27 30 33 37 40 44 47 49 51 53 54 55 56 56 59 65 75 86
66 64 63 62 59 58 56 53 51 48 45 42 38 35 31 27 23 20 17 16 14 13 13 12 13 14 15 17 18 20 22 24 26 28 31 34 38 44 50 57 67 80
63 61 58 56 53 51 47 43 38 32 28 24 20 17 15 13 12 11 11 11 10 10 10 10 11 11 11 12 13 13 14 14 14 14 15 16 19 24 32 41 51 63
59 56 52 48 44 38 33 27 21 18 15 14 12 12 12 11 11 11 11 11 11 10 10 10 10 10 11 12 12 12 13 13 13 13 12 12 12 13 17 22 29 39
51 45 39 32 27 22 18 16 14 13 13 13 12 12 12 12 12 12 11 11 11 11 11 11 11 11 11 12 12 13 13 13 13 13 12 12 12 12 13 13 15 20
35 29 23 19 16 15 14 14 14 14 14 14 14 14 13 13 13 13 12 12 12 12 12 11 12 12 13 13 13 13 14 13 13 13 13 13 12 13 13 13 13 14
21 19 17 16 16 16 16 16 16 15 16 15 15 15 14 14 14 14 14 13 13 13 13 13 13 13 13 14 14 15 15 14 14 14 14 14 14 14 14 13 14 14
19 19 18 18 18 18 18 18 17 18 17 17 17 17 16 16 15 15 15 15 15 14 14 14 14 14 14 14 14 15 15 15 15 15 14 15 14 14 14 14 14 14
21 21 20 20 20 20 20 20 20 20 19 19 19 18 18 17 17 16 16 16 15 15 14 14 14 13 13 13 13 13 14 14 14 14 14 14 14 14 15 14 14 15
Wind_Speed
32 30 30 30 31 32 32 32 31 31 31 31 31 31 31 31 31 31 31 31 31 32 30 27 28 29 29 31 32 33 35 37 38 39 40 41 42 43 44 45 46 46
30 29 28 28 28 28 28 27 26 25 25 26 26 27 28 28 28 28 28 28 29 29 30 31 32 33 34 35 36 38 40 41 42 43 44 45 45 47 48 49 49 49
30 28 27 27 27 26 25 24 23 22 21 21 22 23 23 24 25 26 27 28 30 31 32 33 34 35 37 38 40 41 43 44 46 47 48 49 50 51 52 52 52 52
30 30 29 27 27 25 24 24 23 23 22 21 21 22 23 24 25 26 27 28 30 32 33 35 37 39 40 42 44 46 47 49 50 51 53 54 55 55 55 54 54 54
31 32 31 30 29 28 27 27 26 26 26 25 25 26 26 27 28 29 31 32 34 36 39 41 43 44 46 48 49 51 52 53 54 55 56 56 56 55 54 53 53 53
32 33 33 33 32 32 31 30 30 30 30 30 31 31 32 33 34 35 37 38 40 42 44 45 47 48 48 49 50 51 52 53 53 54 54 55 54 53 52 52 51 51
33 33 32 32 31 30 30 29 29 30 30 31 32 33 35 36 38 39 41 42 44 45 46 47 47 47 47 48 49 49 50 50 51 51 53 53 53 53 52 51 50 50
31 30 29 29 28 28 29 29 30 30 31 32 33 34 35 36 37 39 40 42 43 44 44 45 46 47 47 48 49 50 50 50 51 52 53 53 53 54 52 50 50 50
29 29 29 29 30 30 31 32 32 33 34 35 36 36 37 38 39 40 41 41 42 43 43 44 44 45 45 46 47 48 49 50 50 51 52 52 52 52 51 50 50 50
30 30 31 31 32 33 33 34 35 36 37 38 39 40 40 41 42 43 43 44 44 45 45 45 45 45 45 46 46 46 47 47 48 48 49 49 50 50 49 49 49 49
32 32 32 33 34 35 36 37 38 38 39 40 41 42 43 44 45 46 47 47 47 48 48 48 48 48 48 48 48 48 48 48 48 48 48 49 49 49 49 49 49 49
34 34 35 36 37 38 39 40 40 41 42 42 43 44 45 46 48 49 49 49 49 50 51 51 51 51 51 51 51 51 51 51 51 50 50 50 50 50 50 50 51 50
36 36 37 38 39 41 41 42 43 44 44 45 46 47 49 50 52 52 52 51 52 53 54 55 56 56 56 56 56 55 55 54 54 54 54 54 53 53 53 53 53 54
37 38 39 40 41 43 44 45 46 47 48 49 51 53 54 55 54 53 53 53 54 55 56 58 59 60 60 60 60 60 59 58 57 57 57 57 57 57 56 57 57 57
40 40 42 43 44 46 47 49 51 52 53 54 56 57 57 55 54 54 55 56 58 58 58 59 61 62 63 63 64 64 64 63 62 62 61 61 61 60 60 60 60 60
43 45 47 48 48 50 51 52 53 54 54 55 55 55 55 55 56 57 59 61 62 62 62 62 63 64 65 66 66 67 67 68 67 67 67 66 66 65 65 64 64 63
49 50 51 51 51 51 51 52 53 54 55 55 56 57 58 59 60 61 63 63 63 64 64 65 66 67 68 69 70 70 70 71 71 70 71 70 70 70 69 68 68 67
52 52 52 52 53 53 54 56 57 58 59 60 61 62 63 63 64 64 64 63 63 63 63 64 65 66 68 69 71 72 72 73 73 73 73 73 73 73 72 71 71 69
53 54 54 55 57 58 59 61 61 62 63 63 63 63 63 63 63 63 63 62 62 62 61 62 62 63 64 66 67 69 70 71 72 73 73 74 74 74 74 73 73 72
55 57 59 60 62 62 63 63 63 63 63 62 62 62 61 62 61 61 61 61 61 61 61 61 61 61 62 62 63 65 66 67 69 70 71 72 72 73 73 73 73 72
59 61 62 63 64 63 63 63 62 61 61 60 60 60 60 60 60 60 60 59 60 60 60 60 60 61 61 61 61 62 63 64 65 67 68 69 70 71 72 72 72 72
61 62 62 62 62 61 61 61 60 60 59 59 59 58 58 58 58 58 58 58 58 59 59 59 59 59 59 59 59 60 60 62 63 64 66 67 68 69 70 71 71 71
62 61 60 60 59 59 59 58 58 58 58 58 58 57 57 56 56 56 56 56 56 56 57 57 56 56 56 56 56 57 58 59 60 61 63 64 65 66 67 68 69 70
58 57 57 56 56 56 56 56 56 56 56 56 56 56 56 56 56 55 55 54 54 54 54 55 55 55 54 55 54 54 55 56 57 58 59 60 61 62 63 64 66 66
53 53 53 53 54 54 54 54 54 55 55 55 55 55 55 55 55 55 55 54 53 53 53 54 54 54 54 54 54 54 54 55 55 56 57 57 58 59 60 60 61 63
52 52 52 53 53 54 54 54 54 54 54 54 54 54 54 54 54 54 54 53 53 52 52 52 53 53 54 54 54 54 54 54 54 55 56 56 57 57 58 58 59 60
Wind_Direction
294 284 279 276 274 273 272 272 270 268 265 263 261 259 256 253 251 248 244 241 240 241 238 235 241 251 255 257 260 262 263 264 265 266 267 269 271 272 273 275 275 275
289 283 282 281 280 279 278 276 273 269 265 261 258 256 253 249 246 242 236 231 228 228 231 238 247 252 255 258 260 262 264 266 267 269 270 272 273 274 275 276 276 275
284 280 279 279 280 280 279 275 270 264 258 253 249 245 242 239 234 231 228 227 229 233 240 247 253 257 260 262 264 266 268 270 271 272 273 275 275 276 277 276 276 276
280 277 277 276 276 277 276 273 268 262 257 252 248 243 239 236 234 233 236 239 244 250 256 260 264 267 268 270 271 272 273 274 275 275 275 277 277 277 277 276 275 274
278 277 277 276 276 276 275 274 271 267 264 261 258 255 252 249 248 247 248 251 256 260 264 267 270 271 272 273 274 275 276 276 276 275 276 276 275 275 274 273 272 271
278 279 279 280 281 280 279 278 276 273 270 267 265 263 262 262 260 260 260 262 263 265 268 270 272 273 274 274 274 275 275 275 274 273 274 274 273 273 272 271 271 271
279 280 281 282 283 283 282 281 280 278 276 273 271 269 268 267 266 267 267 268 268 269 270 271 272 273 273 273 273 274 273 273 272 272 272 273 273 273 272 272 272 271
277 278 279 280 281 281 282 282 282 281 280 279 278 276 275 273 272 272 271 271 272 272 272 272 272 272 272 271 271 271 271 271 271 270 271 271 272 272 272 272 271 270
274 275 276 277 278 278 279 279 279 280 280 280 280 280 280 279 278 278 277 277 276 276 276 276 275 274 273 272 271 271 270 270 269 269 269 269 270 270 270 270 269 268
273 275 275 276 278 278 279 279 279 278 278 278 278 278 279 279 279 279 279 279 279 279 279 278 278 277 276 275 273 272 271 270 269 269 268 268 268 268 268 267 268 267
274 275 277 278 280 281 281 281 280 280 280 280 279 279 279 280 280 280 280 280 280 280 280 280 279 279 277 276 275 273 272 271 270 269 268 268 267 267 266 266 266 266
274 276 278 279 280 281 281 281 281 281 281 281 281 281 282 282 282 282 282 282 282 283 283 283 282 281 279 278 276 275 273 272 271 269 268 268 267 267 266 266 266 266
273 276 277 278 278 278 278 279 279 280 280 280 280 281 282 283 282 280 280 281 282 284 284 284 283 282 281 280 278 277 275 273 271 270 268 268 267 266 266 266 266 266
273 275 276 277 278 278 278 278 278 279 279 279 279 280 282 282 280 277 277 278 280 282 282 281 281 281 280 280 279 278 276 274 273 271 270 268 267 267 266 266 266 266
277 279 280 281 280 279 279 278 278 279 279 279 279 280 281 280 278 277 277 278 281 282 281 280 279 278 278 277 277 276 275 274 273 272 271 271 269 269 268 267 266 266
282 284 285 285 283 282 281 280 280 280 280 281 281 281 280 279 279 279 279 280 281 281 280 279 278 277 276 275 275 275 274 273 272 272 272 271 271 270 269 268 267 267
286 288 289 288 287 286 285 285 285 284 284 284 284 283 283 282 282 281 281 281 280 279 278 277 275 274 273 273 272 272 272 272 272 271 271 271 270 270 269 269 267 266
289 290 290 290 290 289 289 288 288 288 287 287 286 286 285 285 284 283 282 281 280 278 277 276 274 273 272 271 271 271 271 271 271 271 271 270 270 270 269 269 268 267
290 291 291 291 292 292 291 291 291 290 289 289 288 287 286 286 285 284 283 282 281 280 278 277 276 274 273 272 271 271 271 271 271 271 270 270 270 270 270 269 269 268
292 293 293 294 294 293 293 293 292 291 290 289 289 288 287 286 285 285 284 283 282 281 280 279 278 276 275 274 273 272 272 271 271 271 271 270 270 270 269 269 269 269
294 294 294 294 294 293 293 292 292 291 290 290 289 288 287 287 286 285 285 284 283 282 281 280 279 278 277 275 275 274 273 272 272 271 271 271 271 270 270 269 269 269
294 294 294 293 293 292 292 292 291 291 290 290 289 289 288 287 287 286 286 285 284 284 282 281 280 279 278 277 276 276 275 274 273 273 272 272 271 271 271 270 270 269
293 293 292 292 291 291 291 291 290 290 290 289 289 289 288 288 288 287 286 286 285 284 284 283 282 281 281 280 279 278 276 275 274 274 273 273 272 272 272 272 272 271
292 291 291 291 291 291 291 290 290 290 290 290 290 290 290 290 289 289 288 288 287 286 286 285 284 284 283 282 281 280 279 278 276 275 275 274 273 273 272 272 272 272
292 293 293 293 292 292 292 292 292 292 292 292 292 292 291 291 290 290 289 289 288 288 287 287 286 285 285 284 283 282 281 280 279 278 277 276 275 274 274 273 272 272
294 294 294 294 293 293 293 293 293 293 293 293 292 292 291 291 290 290 289 289 288 288 288 287 286 286 285 284 284 283 283 282 281 280 279 278 277 276 275 274 273 273